Location: ????????
(41.2031°N, 22.5756°E)
Time: 15:29:52
(UTC+00:00)

COSMO-SKYMED 1 - Pass Details

Date: 01 December 2020
Orbit: 621 x 623 km, 97.9° (Epoch: 21 January)

Event Time Altitude Azimuth Distance (km) Brightness Sun altitude
Exits shadow 17:23:03 11° 350° (N) 1,933 5.1 -26.0°
Maximum altitude 17:26:39 30° 291° (WNW) 1,120 4.3 -26.7°
Drops below altitude 10° 17:30:26 10° 230° (SW) 1,989 5.8 -27.4°
Sets 17:32:48 0° 219° (SW) 2,890 6.6 -27.8°
